{"data":{"norad_id":68729,"epoch":"2026-09-19T20:35:54.180672Z","epoch_age_seconds":96779,"freshness":"FRESH","line1":"1 68729U 26082B   26262.85826598  .00015420  00000+0  47888-3 0  9998","line2":"2 68729  97.2856 124.9648 0002369  91.2060 268.9455 15.33450095 24205","mean_motion":15.33450095,"eccentricity":0.0002369,"inclination_deg":97.2856,"raan_deg":124.9648,"arg_perigee_deg":91.206,"mean_anomaly_deg":268.9455,"bstar":0.00047888,"rev_number":2420,"period_min":93.905892646607,"perigee_km":463.9067511426,"apogee_km":467.14927962689,"semimajor_km":6843.6650153847,"source":"CELESTRAK","updated_at":"2026-09-20T09:00:43.989617Z"}}